Location: Unspecified
(0.0000°N, 0.0000°E)
Time: 23:38:26
(UTC+00:00)

Hubble Space Telescope - Pass Details

Date: 25 November 2022
Orbit: 530 x 534 km, 28.5° (Epoch: 02 December)

Event Time Altitude Azimuth Distance (km) Brightness Sun altitude
Rises 19:33:07 0° 300° (WNW) 2,656 4.8 -24.6°
Reaches altitude 10° 19:35:22 10° 299° (WNW) 1,768 3.8 -25.2°
Enters shadow 19:38:05 41° 297° (WNW) 777 1.8 -25.8°
